Погода Ханты-Мансийск

Хотите узнать прогноз погоды Ханты-Мансийск? Тогда Вам сюда: Погода Ханты-Мансийск

Поиск расширенной информации на нашем сайте:

Полезная информация:

Новости сайта



02.01.2020
Опубликован Долгосрочный прогноз погоды по городам России и ближнего зарубежья на январь 2020 года.
Карты: Прогноз на январь и февраль 2020 года, Сравнение прогнозируемой аномалии приземной температуры воздуха на январь 2020 года по разным моделям.




Погода Ханты-Мансийск - сегодня

Время (UTC), дата Ветер
(°,м/с) 
Видим.   Явления Облачность Т
(°С)
Тd
(°С)
f(%) Тe
(°С)
Pmin
(гПа)
dP
(гПа)
Po
(мм)
O2
(г/м3)
Тmin Tmax R s Состояние
почвы
06 05.04.20 150 (ЮВ) 10 км  слаб. дождь  10/5 300 м средняя 
[St|As op]
+3 +0.1 81 +2  1010.1  -2.2  753  300           
09 05.04.20 120 (ЮВ) 10 км  в посл. час дождь  10/6 600 м средняя 
[Sc|As op]
+2 +1 93 +3  1008.4  -1.7  752  301           
12 05.04.20 180 (Ю) 4000 м  слаб. ливневой снег  10/10 300 м кучево-дожд. 
[Cb cap]
+0.6 -0.2 94 +1  1007.2  -1.2  751  302           
15 05.04.20 140 (ЮВ) 4000 м  слаб. ливневой снег  10/10 300 м кучево-дожд. 
[Cb cap]
+0.1 -0.5 96 +1  1006.1  -1.1  750  302    +3.1  14     
18 05.04.20 тихо ()   1000 м  дымка{ливн. осадки} [диам. отлож. мокр. снега 1 мм]  10/10 300 м 
[Ns]
+0.1 -0.5 96 1005.4  -0.7  750  302           
21 05.04.20 310 (СЗ) 4000 м  дымка [диам. отлож. мокр. снега 0 мм]  10/10 300 м 
[Ns]
+0.3 -0.3 96 1004.8  -0.7  749  302           
00 06.04.20 310 (СЗ) 2000 м  дымка  10/0 средняя 
[As op]
-0.2 -0.8 96 1005.2  0.4  750  302           
03 06.04.20 270 (З) 1000 м  дымка  10/10 300 м 
[Ns]
-0 -0.6 96 +1  1006.3  1.1  751  302  -0.3    0.0  40  равномерный
мокрый или
старый снег
100% 
06 06.04.20 190 (Ю) 2000 м  дымка  10/10 600 м 
[Ns]
+0.4 -0.2 96 1007.2  0.9  751  302           
09 06.04.20 160 (Ю) 4000 м  слаб. снег  10/10 600 м 
[Ns]
+1 +0.2 94 1007.6  0.4  752  302           
12 06.04.20 тихо ()   2000 м  слаб. ливневой снег  10/10 300 м кучево-дожд. 
[Cb cap]
+0.7 -0.1 94 +1  1007.5  0.1  751  302           
15 06.04.20 310 (СЗ) 2000 м  слаб. ливневой снег [диам. отлож. мокр. снега 1 мм]  10/10 300 м кучево-дожд. 
[Cb cap]
+0.1 -0.6 95 +1  1007.2  -0.3  751  303    +1.1     
18 06.04.20 320 (СЗ) 4000 м  слаб. ливневой снег [диам. отлож. мокр. снега 1 мм]  8/8 300 м кучево-дожд. 
[Cb cap]
-0.9 -1.5 96 -2  1006.8  -0.4  751  304           
21 06.04.20 340 (С) 10 км  {ливн. осадки} [диам. отлож. мокр. снега 1 мм]  5/5 300 м кучево-дожд. 
[Cb cap]
-1.4 -2.7 91 -3  1005.7  -1.1  750  304           
00 07.04.20 330 (СЗ) 4000 м  слаб. ливневой снег [диам. отлож. мокр. снега 1 мм]  10/10 600 м кучево-дожд. 
[Cb cap]
-1.5 -2.5 93 -3  1005.3  -0.4  750  304           
03 07.04.20 320 (СЗ) 4000 м  слаб. ливневой снег [диам. отлож. мокр. снега 1 мм]  8/8 300 м кучево-дожд., средняя 
[Cb cap|Ac As]
+0.1 -0.9 93 -1  1005.4  0.1  750  302  -1.6    45  равномерный
сухой снег
100% 
06 07.04.20 340 (С) 10 км  {ливн. осадки} [диам. отлож. мокр. снега 0 мм]  10/9 1000 м кучево-дожд., средняя 
[Cb cap|As op]
-0.1 -2.6 83 -2  1005.9  0.5  750  303           
09 07.04.20 340 (С) 10 км  {ливн. осадки}  10/10 600 м кучево-дожд. 
[Cb cap]
+0.1 -3.2 78 -2  1005.4  -0.5  750  302           
12 07.04.20 360 (С) 4-10{12}  4000 м  слаб. ливневой снег  10/10 600 м кучево-дожд. 
[Cb cap]
-1.9 -3.5 89 -5  1003  -2.5  748  304           
15 07.04.20 360 (С) 5-13{16}  1000 м  ливневой снег  10/10 600 м кучево-дожд. 
[Cb cap]
-3 -3.8 94 -7  998.7  -4.3  745  304    +1.8     
18 07.04.20 010 (С) 5-15{15}  1000 м  ливневой снег  10/10 600 м кучево-дожд. 
[Cb cap]
-4 -4.8 94 -8  991.3  -7.3  739  303           
21 07.04.20 010 (С) 4-11{16}  0500 м  ливневой снег  10/10 600 м кучево-дожд. 
[Cb cap]
-4.2 -5 94 -7  983.3  -8  733  301           
00 08.04.20 000 (С) 3{11}  2000 м  слаб. ливневой снег  10/10 600 м кучево-дожд. 
[Cb cap]
-2.6 -3.3 95 -5  979.8  -3.4  731  298           
03 08.04.20 350 (С) 4000 м  слаб. ливневой снег  10/10 1000 м кучево-дожд. 
[Cb cap]
-0.9 -1.5 96 -2  978.4  -1.4  730  295  -4.3    19  58  равномерный
мокрый или
старый снег
100% 
06 08.04.20 340 (С) 4000 м  слаб. ливневой снег  10/10 1000 м кучево-дожд. 
[Cb cap]
+0.2 -0.5 95 -1  978.9  0.5  730  294           
Время (UTC), дата Ветер
(°,м/с) 
Видим.   Явления Облачность Т
(°С)
Тd
(°С)
f(%) Тe
(°С)
Pmin
(гПа)
dP
(гПа)
Po
(мм)
O2
(г/м3)
Тmin Tmax R s Состояние
почвы

Для получения пояснительной информации подведите курсор к названию столбца.

ПОГОДА Ханты-Мансийск - архив

Всё, что Вы хотите узнать о погоде Ханты-Мансийск - удобно и подробно!

Выберите нужную дату (начиная с 1 января 2019* года) и нажмите кнопку "Найти".
Будут отображены архивные сводки погоды по пункту Ханты-Мансийск, начиная с указанной даты.


Отображать данные в формате CSV (для использования в таблицах Excel)


Внимание! Наш архив погоды предназначен исключительно для личного некоммерческого использования в познавательных целях. Если Вам необходимы официальные справки о состоянии погоды (для производственных, юридических, коммерческих и т.п. целей), обращайтесь в органы Росгидромета.

*Примечание: данная дата относится к архиву по метеостанциям СССР (Россия, СНГ, Балтия).
Архив по метеостанциям Зарубежной Европы и Азии (кроме Китая) хранится 10 дней, по другим регионам земного шара (Китай, Африка, Америка, Австралия, Океания) - 1 день.

Ханты-Мансийск - район местоположения метеостанции


Название, широта, долгота, высота метеостанции:
Ханты-Мансийск 61°ш. 69°д. 46 м над ур. моря [Российская Федерация]

Дополнительная информация

В oтличие oт бoльшинства пoгoдных сайтoв мы публикуем пoдрoбную метеoинфoрмацию в детальнoм прoфессиoнальнoм фoрмате.

Характеристики температуры и влажнoсти вoздуха измеряются на высoте 2 м в тени вдали oт зданий и деревьев.
Скoрoсть ветра измеряется на высoте 10 м (на урoвне рoста челoвека скoрoсть ветра ниже в 1.5-2 раза). Если метеoстанция нахoдится в гoрoде или в лесу, тo скoрoсть ветра занижена на 2-4 м/с пo сравнению с oткрытым местoм. Скoрoсть ветра над акватoриями крупных рек и oзёр, а также на вершинах хoлмoв на 2-5 м/с выше, чем в oбычных услoвиях.
Атмoсфернoе давление в разных тoчках местнoсти мoжет значительнo oтличаться oт давления на метеoстанции, в зависимoсти oт услoвий рельефа (при пoдъёме на 10 м давление пoнижается примернo на 1 мм рт.ст.).